{"data":{"norad_id":68360,"epoch":"2026-05-25T04:16:44.802912Z","epoch_age_seconds":56085,"freshness":"FRESH","line1":"1 68360U 26061A   26145.17829633  .00073524  00000+0  29628-3 0  9995","line2":"2 68360  82.2957  38.1076 0006907 183.3818 176.7406 15.86112360  9910","mean_motion":15.8611236,"eccentricity":0.0006907,"inclination_deg":82.2957,"raan_deg":38.1076,"arg_perigee_deg":183.3818,"mean_anomaly_deg":176.7406,"bstar":0.00029628,"rev_number":991,"period_min":90.788019582673,"perigee_km":308.57272950038,"apogee_km":317.81613474071,"semimajor_km":6691.3314321205,"source":"CELESTRAK","updated_at":"2026-05-25T13:38:07.763303Z"}}